Zurück zum Katalog

LEMUR 2 ALISIA

AktivWissenschaftSSO
NORAD 62706·PAYLOAD·🇺🇸 United States

Gestartet Jan 14, 2025 von Vandenberg Space Force Base

Loading…

Nächste Überflüge (nächste 24 Stunden)

TLE

AktuellSource: Space-Track

Epoche: Sep 14, 2026, 10:59 UTC

1 62706U 25009DB  26257.45780220  .00006095  00000-0  44670-3 0  9991
2 62706  97.6892 339.0755 0001586 294.8900  65.2160 15.03895036113575

Verfolge LEMUR 2 ALISIA in Echtzeit mit AllMySat

Download on the App Store